Volver al catálogo

KOMPSAT 3

ActivoCienciaSSO
NORAD 38338·PAYLOAD·🇰🇷 South Korea

Lanzado May 17, 2012 desde Tanegashima Space Center

Loading…

Próximos Pases (próximas 24 horas)

TLE

ActualizadoSource: Space-Track

Época: Sep 14, 2026, 14:32 UTC

1 38338U 12025B   26257.60621418  .00000298  00000-0  68241-4 0  9999
2 38338  98.1271 213.5672 0005097 179.9850 180.1353 14.62271208764417

Sigue KOMPSAT 3 en tiempo real con AllMySat

Download on the App Store